Find Starlink 36561

NORAD ID: 67537 Int'l Des: 2026-014 Owner: SPXS Country: US Constellation: starlink operational
LEOCIRCULARRETROGRADE

Current View

Loading 3D Globe...

About Starlink 36561

Description loading...

Upcoming Passes

Passes for default location (London). Set your location on the main map for personalized predictions.

Altitude History

Loading altitude history...

Two-Line Element Set

1 67537U 26014F 26146.21248589 .00025124 00000-0 77783-3 0 9998
2 67537 97.2859 33.2363 0001968 96.0519 264.0949 15.33448756 20668
Epoch: May 26, 2026 • Age: 11 hours

Current Status

Altitude 473.2 km
Velocity 7.63 km/s
Sub-Earth Point -18.41°S, 87.86°W
Launch Date Jan 22, 2026
Age 0.3 years
Type internet

Technical Details

Classification Payload
Mass 575.00 kg
Dry Mass 530.00 kg
Total Mass 575.00 kg
Length 0.30 m
Diameter 4.10 m
Span 29.00 m
Shape Box + pan
Manufacturer SPXS
Bus Type Starlink V2MO
Phase Status In Orbit
Owner/State SPXS/US

Most Searched